This demonstration page uses our WeatherBlox Daily Observations layout. Learn more.

Left ArrowRight Arrow

Hourly Observations for January 30, 2017

Temp ( °F °C ) Dew Point ( °F °C ) Humidity (%) Winds ( mph kmh ) Pressure ( in mb ) Visibility ( mi km ) Precip ( " mm )
12:53 am 00:53 Clear 39 3.9 35 1.7 86 86 N 5 7 30.29 1026 10 16 0.00 0.00
1:53 am 01:53 Clear 36 2.2 34 1.1 93 93 Calm 30.27 1025 10 16 0.00 0.00
2:53 am 02:53 Clear 35 1.7 33 0.6 93 93 Calm 30.26 1025 9 14 0.00 0.00
3:53 am 03:53 Clear 34 1.1 32 0 92 92 Calm 30.25 1025 8 13 0.00 0.00
4:53 am 04:53 Clear 33 0.6 31 -0.6 92 92 Calm 30.26 1025 10 16 0.00 0.00
5:53 am 05:53 Clear 31 -0.6 29 -1.7 92 92 Calm 30.27 1025 10 16 0.00 0.00
6:53 am 06:53 Clear 31 -0.6 30 -1.1 96 96 NW 3 6 30.29 1026 8 13 0.00 0.00
7:53 am 07:53 Sunny 31 -0.6 29 -1.7 92 92 Calm 30.29 1026 7 11 0.00 0.00
8:53 am 08:53 Sunny 37 2.8 34 1.1 89 89 Calm 30.30 1026 10 16 0.00 0.00
9:53 am 09:53 Sunny 43 6.1 36 2.2 76 76 Calm 30.30 1026 10 16 0.00 0.00
10:53 am 10:53 Sunny 50 10 37 2.8 61 61 Calm 30.28 1026 10 16 0.00 0.00
11:53 am 11:53 Sunny 56 13.3 36 2.2 47 47 Calm 30.25 1025 10 16 0.00 0.00
12:53 pm 12:53 Sunny 58 14.4 35 1.7 42 42 Calm 30.22 1023 10 16 0.00 0.00
1:53 pm 13:53 Sunny 61 16.1 33 0.6 35 35 S 3 6 30.19 1022 10 16 0.00 0.00
2:53 pm 14:53 Sunny 62 16.7 35 1.7 37 37 Calm 30.17 1022 10 16 0.00 0.00
3:53 pm 15:53 Sunny 62 16.7 36 2.2 38 38 SE 3 6 30.17 1022 10 16 0.00 0.00
4:53 pm 16:53 Sunny 60 15.6 38 3.3 44 44 ESE 3 6 30.16 1022 10 16 0.00 0.00
5:53 pm 17:53 Clear 52 11.1 38 3.3 59 59 Calm 30.17 1022 10 16 0.00 0.00
6:53 pm 18:53 Clear 48 8.9 38 3.3 68 68 Calm 30.17 1022 10 16 0.00 0.00
7:53 pm 19:53 Clear 44 6.7 37 2.8 76 76 Calm 30.18 1022 10 16 0.00 0.00
8:53 pm 20:53 Clear 41 5 36 2.2 82 82 Calm 30.18 1022 10 16 0.00 0.00
9:53 pm 21:53 Clear 39 3.9 35 1.7 86 86 Calm 30.19 1022 10 16 0.00 0.00
10:53 pm 22:53 Clear 38 3.3 34 1.1 86 86 Calm 30.19 1022 10 16 0.00 0.00
11:53 pm 23:53 Clear 37 2.8 34 1.1 89 89 Calm 30.18 1022 10 16 0.00 0.00

Powered by AerisWeather